RPB2704 SKCL-SKPS

Flight info

Callsign RPB2704
Flight time 0h 45m
Altitude 20000
Route ISOPA4B ISOPA G675 MER
Aircraft B738/M-SDE2E3FGHIRWXY/LB1

Departure

Time 2026-04-27 22:35
Airport Alfonso Bonilla Aragon International Airport (SKCL)

Arrival

Time 2026-04-27 23:20
Airport Antonio Nariño Airport (SKPS)
Time Latitude Longitude Altitude Speed Heading
2026-04-27 22:17 3.53513 -76.38635 3161 ft 0 kts 279°
2026-04-27 22:24 3.53513 -76.38631 3161 ft 2 kts 278°
2026-04-27 22:24 3.53510 -76.38615 3163 ft 2 kts 279°
2026-04-27 22:25 3.53507 -76.38598 3165 ft 2 kts 280°
2026-04-27 22:25 3.53504 -76.38582 3163 ft 2 kts 282°
2026-04-27 22:25 3.53500 -76.38566 3161 ft 2 kts 289°
2026-04-27 22:25 3.53492 -76.38551 3164 ft 2 kts 333°
2026-04-27 22:26 3.53482 -76.38549 3162 ft 1 kts 10°
2026-04-27 22:26 3.53481 -76.38549 3162 ft 0 kts 10°
2026-04-27 22:28 3.53496 -76.38546 3161 ft 5 kts 13°
2026-04-27 22:28 3.53528 -76.38539 3161 ft 5 kts 18°
2026-04-27 22:28 3.53550 -76.38515 3161 ft 5 kts 70°
2026-04-27 22:28 3.53556 -76.38477 3161 ft 7 kts 77°
2026-04-27 22:29 3.53600 -76.38464 3161 ft 8 kts
2026-04-27 22:29 3.53662 -76.38446 3161 ft 11 kts 12°
2026-04-27 22:29 3.53741 -76.38431 3161 ft 13 kts 10°
2026-04-27 22:29 3.53833 -76.38415 3162 ft 14 kts
2026-04-27 22:30 3.53933 -76.38398 3164 ft 15 kts
2026-04-27 22:30 3.54044 -76.38379 3165 ft 17 kts 10°
2026-04-27 22:30 3.54164 -76.38360 3165 ft 18 kts 12°
2026-04-27 22:30 3.54289 -76.38336 3164 ft 18 kts
2026-04-27 22:31 3.54412 -76.38315 3164 ft 18 kts 10°
2026-04-27 22:31 3.54534 -76.38294 3165 ft 18 kts
2026-04-27 22:31 3.54664 -76.38272 3165 ft 19 kts 11°
2026-04-27 22:31 3.54799 -76.38249 3166 ft 20 kts
2026-04-27 22:32 3.54932 -76.38226 3166 ft 19 kts
2026-04-27 22:32 3.55059 -76.38205 3167 ft 18 kts
2026-04-27 22:32 3.55184 -76.38183 3168 ft 18 kts 10°
2026-04-27 22:32 3.55307 -76.38161 3169 ft 18 kts
2026-04-27 22:33 3.55428 -76.38140 3170 ft 18 kts
2026-04-27 22:33 3.55553 -76.38119 3171 ft 19 kts 10°
2026-04-27 22:33 3.55657 -76.38084 3173 ft 14 kts 55°
2026-04-27 22:33 3.55653 -76.37992 3175 ft 13 kts 102°
2026-04-27 22:34 3.55582 -76.37951 3171 ft 13 kts 186°
2026-04-27 22:34 3.55471 -76.37971 3172 ft 30 kts 191°
2026-04-27 22:34 3.55025 -76.38046 3167 ft 100 kts 190°
2026-04-27 22:34 3.54129 -76.38199 3165 ft 159 kts 189°
2026-04-27 22:35 3.52928 -76.38394 3554 ft 177 kts 189°
2026-04-27 22:35 3.51721 -76.38596 4340 ft 182 kts 190°
2026-04-27 22:35 3.50410 -76.38827 4878 ft 199 kts 191°
2026-04-27 22:35 3.48981 -76.39085 5303 ft 220 kts 191°
2026-04-27 22:36 3.47388 -76.39370 5500 ft 245 kts 190°
2026-04-27 22:36 3.45643 -76.39678 5786 ft 266 kts 190°
2026-04-27 22:36 3.43754 -76.40008 6197 ft 282 kts 190°
2026-04-27 22:36 3.41807 -76.40348 7032 ft 283 kts 190°
2026-04-27 22:37 3.39867 -76.40718 7897 ft 285 kts 196°
2026-04-27 22:37 3.38003 -76.41437 8680 ft 289 kts 205°
2026-04-27 22:37 3.36183 -76.42311 9499 ft 292 kts 206°
2026-04-27 22:37 3.34368 -76.43202 10241 ft 297 kts 206°
2026-04-27 22:38 3.32444 -76.44134 10532 ft 320 kts 205°
2026-04-27 22:38 3.30364 -76.45119 10748 ft 341 kts 205°
2026-04-27 22:38 3.28178 -76.46137 11279 ft 349 kts 205°
2026-04-27 22:38 3.25958 -76.47163 11963 ft 352 kts 205°
2026-04-27 22:39 3.23726 -76.48191 12684 ft 355 kts 205°
2026-04-27 22:39 3.21468 -76.49234 13380 ft 359 kts 205°
2026-04-27 22:39 3.19188 -76.50289 14027 ft 362 kts 205°
2026-04-27 22:39 3.16887 -76.51356 14623 ft 366 kts 205°
2026-04-27 22:40 3.14566 -76.52432 15217 ft 369 kts 205°
2026-04-27 22:40 3.12220 -76.53519 15809 ft 372 kts 205°
2026-04-27 22:40 3.09862 -76.54612 16386 ft 376 kts 205°
2026-04-27 22:40 3.07473 -76.55719 16966 ft 379 kts 205°
2026-04-27 22:41 3.05069 -76.56833 17548 ft 382 kts 205°
2026-04-27 22:41 3.02642 -76.57957 18087 ft 386 kts 205°
2026-04-27 22:41 3.00190 -76.59090 18575 ft 389 kts 205°
2026-04-27 22:41 2.97748 -76.60218 19050 ft 392 kts 205°
2026-04-27 22:42 2.95266 -76.61363 19590 ft 392 kts 204°
2026-04-27 22:42 2.92776 -76.62513 19911 ft 395 kts 204°
2026-04-27 22:42 2.90249 -76.63680 19948 ft 404 kts 204°
2026-04-27 22:42 2.87677 -76.64867 19960 ft 409 kts 204°
2026-04-27 22:43 2.85099 -76.66058 19955 ft 407 kts 204°
2026-04-27 22:43 2.82532 -76.67244 19961 ft 406 kts 204°
2026-04-27 22:43 2.79998 -76.68415 19974 ft 405 kts 204°
2026-04-27 22:43 2.77441 -76.69596 19990 ft 405 kts 204°
2026-04-27 22:44 2.74884 -76.70777 20005 ft 405 kts 204°
2026-04-27 22:44 2.72327 -76.71958 20018 ft 405 kts 204°
2026-04-27 22:44 2.69757 -76.73145 20035 ft 406 kts 204°
2026-04-27 22:44 2.67194 -76.74328 20044 ft 406 kts 204°
2026-04-27 22:45 2.64617 -76.75519 20051 ft 407 kts 204°
2026-04-27 22:45 2.62049 -76.76704 20058 ft 407 kts 204°
2026-04-27 22:45 2.59474 -76.77894 20065 ft 407 kts 204°
2026-04-27 22:45 2.56899 -76.79083 20065 ft 408 kts 204°
2026-04-27 22:46 2.54318 -76.80275 20067 ft 408 kts 204°
2026-04-27 22:46 2.51739 -76.81465 20074 ft 408 kts 204°
2026-04-27 22:46 2.49200 -76.82635 20070 ft 408 kts 204°
2026-04-27 22:46 2.46622 -76.83822 20066 ft 407 kts 204°
2026-04-27 22:47 2.44049 -76.85006 20060 ft 407 kts 204°
2026-04-27 22:47 2.41473 -76.86194 20058 ft 407 kts 204°
2026-04-27 22:47 2.38898 -76.87383 20050 ft 407 kts 204°
2026-04-27 22:47 2.36326 -76.88572 20047 ft 407 kts 204°
2026-04-27 22:48 2.33749 -76.89763 20035 ft 407 kts 204°
2026-04-27 22:48 2.31180 -76.90950 20033 ft 407 kts 204°
2026-04-27 22:48 2.28642 -76.92123 20008 ft 394 kts 204°
2026-04-27 22:48 2.26201 -76.93251 20006 ft 380 kts 204°
2026-04-27 22:49 2.23811 -76.94356 20017 ft 377 kts 204°
2026-04-27 22:49 2.21422 -76.95460 20025 ft 378 kts 204°
2026-04-27 22:49 2.19022 -76.96568 19778 ft 381 kts 204°
2026-04-27 22:49 2.16632 -76.97672 19463 ft 377 kts 204°
2026-04-27 22:50 2.14258 -76.98768 19065 ft 375 kts 205°
2026-04-27 22:50 2.11925 -76.99845 18664 ft 373 kts 205°
2026-04-27 22:50 2.09565 -77.00936 18220 ft 372 kts 205°
2026-04-27 22:50 2.07220 -77.02019 17748 ft 370 kts 205°
2026-04-27 22:51 2.04888 -77.03096 17312 ft 368 kts 205°
2026-04-27 22:51 2.03326 -77.03818 17022 ft 366 kts 205°
2026-04-27 22:51 2.01051 -77.04868 16611 ft 363 kts 205°
2026-04-27 22:51 1.98760 -77.05926 16187 ft 361 kts 205°
2026-04-27 22:52 1.96488 -77.06976 15776 ft 359 kts 205°
2026-04-27 22:52 1.94221 -77.08023 15367 ft 357 kts 205°
2026-04-27 22:52 1.91979 -77.09058 14962 ft 355 kts 205°
2026-04-27 22:52 1.89764 -77.10081 14802 ft 346 kts 205°
2026-04-27 22:53 1.87609 -77.11077 14638 ft 337 kts 205°
2026-04-27 22:53 1.85510 -77.12046 14491 ft 328 kts 205°
2026-04-27 22:53 1.83467 -77.12990 14366 ft 319 kts 205°
2026-04-27 22:53 1.81476 -77.13909 14237 ft 311 kts 205°
2026-04-27 22:54 1.79534 -77.14805 14106 ft 303 kts 205°
2026-04-27 22:54 1.77646 -77.15719 13873 ft 300 kts 207°
2026-04-27 22:54 1.75810 -77.16698 13598 ft 297 kts 208°
2026-04-27 22:54 1.74002 -77.17683 13325 ft 295 kts 208°
2026-04-27 22:55 1.72229 -77.18650 13062 ft 292 kts 208°
2026-04-27 22:55 1.70452 -77.19615 12804 ft 290 kts 208°
2026-04-27 22:55 1.68685 -77.20570 12554 ft 287 kts 208°
2026-04-27 22:55 1.66936 -77.21512 12304 ft 285 kts 208°
2026-04-27 22:56 1.65198 -77.22447 12054 ft 283 kts 208°
2026-04-27 22:56 1.63469 -77.23377 11803 ft 280 kts 208°
2026-04-27 22:56 1.61750 -77.24300 11473 ft 282 kts 208°
2026-04-27 22:56 1.60021 -77.25228 11172 ft 282 kts 208°
2026-04-27 22:57 1.58285 -77.26160 10907 ft 281 kts 208°
2026-04-27 22:57 1.56586 -77.27072 10655 ft 279 kts 208°
2026-04-27 22:57 1.54874 -77.27990 10405 ft 277 kts 208°
2026-04-27 22:57 1.53178 -77.28900 10164 ft 276 kts 208°
2026-04-27 22:58 1.51476 -77.29779 9895 ft 274 kts 206°
2026-04-27 22:58 1.49794 -77.30617 9638 ft 272 kts 206°
2026-04-27 22:58 1.48104 -77.31458 9381 ft 270 kts 206°
2026-04-27 22:58 1.46423 -77.32297 9125 ft 268 kts 207°
2026-04-27 22:59 1.44764 -77.33127 8893 ft 265 kts 207°
2026-04-27 22:59 1.43143 -77.33938 8797 ft 251 kts 207°
2026-04-27 22:59 1.41664 -77.34679 8795 ft 231 kts 207°
2026-04-27 22:59 1.40288 -77.35368 8780 ft 212 kts 207°
2026-04-27 23:00 1.37835 -77.36509 8580 ft 184 kts 194°
2026-04-27 23:00 1.36623 -77.36553 8412 ft 171 kts 170°
2026-04-27 23:00 1.35537 -77.36127 8129 ft 168 kts 148°
2026-04-27 23:01 1.34640 -77.35388 7884 ft 167 kts 129°
2026-04-27 23:01 1.34059 -77.34401 7669 ft 167 kts 109°
2026-04-27 23:01 1.33860 -77.33276 7462 ft 161 kts 86°
2026-04-27 23:01 1.34178 -77.32209 7188 ft 162 kts 56°
2026-04-27 23:02 1.34850 -77.31328 6959 ft 156 kts 48°
2026-04-27 23:02 1.35602 -77.30545 6748 ft 157 kts 39°
2026-04-27 23:02 1.36504 -77.29927 6530 ft 158 kts 25°
2026-04-27 23:02 1.37566 -77.29667 6260 ft 157 kts 11°
2026-04-27 23:03 1.38627 -77.29359 6140 ft 162 kts 15°
2026-04-27 23:03 1.39649 -77.29112 6766 ft 145 kts 12°
2026-04-27 23:03 1.40693 -77.28880 6952 ft 159 kts 11°
2026-04-27 23:03 1.41889 -77.28683 6839 ft 200 kts
2026-04-27 23:04 1.43309 -77.28579 7192 ft 207 kts
2026-04-27 23:04 1.44694 -77.28189 7793 ft 206 kts 17°
2026-04-27 23:04 1.46026 -77.27629 8347 ft 209 kts 31°
2026-04-27 23:04 1.47357 -77.27030 8828 ft 215 kts
2026-04-27 23:05 1.48812 -77.27365 9153 ft 229 kts 331°
2026-04-27 23:05 1.50319 -77.28097 9341 ft 252 kts 338°
2026-04-27 23:05 1.52050 -77.28682 9642 ft 269 kts 343°
2026-04-27 23:05 1.53861 -77.29198 10255 ft 277 kts 345°
2026-04-27 23:06 1.55728 -77.29687 11099 ft 276 kts 346°
2026-04-27 23:06 1.57610 -77.30154 11640 ft 278 kts 346°
2026-04-27 23:06 1.59492 -77.30611 11952 ft 281 kts 346°
2026-04-27 23:06 1.61439 -77.31079 11973 ft 300 kts 346°
2026-04-27 23:07 1.63530 -77.31579 11981 ft 326 kts 346°
2026-04-27 23:07 1.65821 -77.32127 11971 ft 350 kts 346°
2026-04-27 23:07 1.68266 -77.32712 11949 ft 368 kts 346°
2026-04-27 23:07 1.70767 -77.33309 11921 ft 370 kts 346°
2026-04-27 23:08 1.73280 -77.33910 11894 ft 369 kts 346°
2026-04-27 23:08 1.75772 -77.34506 11885 ft 369 kts 346°
2026-04-27 23:08 1.78241 -77.35080 11884 ft 368 kts 349°
2026-04-27 23:08 1.80786 -77.35056 11888 ft 367 kts 14°
2026-04-27 23:09 1.83103 -77.34004 11902 ft 367 kts 36°
2026-04-27 23:09 1.84903 -77.32209 11889 ft 368 kts 55°
2026-04-27 23:09 1.85997 -77.29908 11894 ft 368 kts 75°
2026-04-27 23:09 1.86233 -77.27358 11884 ft 369 kts 96°
2026-04-27 23:10 1.85621 -77.24918 11889 ft 369 kts 115°
2026-04-27 23:10 1.84261 -77.22743 11903 ft 369 kts 126°
2026-04-27 23:10 1.82751 -77.20655 11898 ft 369 kts 126°
2026-04-27 23:10 1.81060 -77.18724 11892 ft 370 kts 142°
2026-04-27 23:11 1.78785 -77.17566 11908 ft 369 kts 165°
2026-04-27 23:11 1.76270 -77.17299 11922 ft 367 kts 184°
2026-04-27 23:11 1.73816 -77.17822 11905 ft 353 kts 203°
2026-04-27 23:11 1.71672 -77.18910 11925 ft 336 kts 208°
2026-04-27 23:12 1.69683 -77.20000 11920 ft 321 kts 209°
2026-04-27 23:12 1.67766 -77.21053 11818 ft 310 kts 208°
2026-04-27 23:12 1.65897 -77.22073 11729 ft 300 kts 208°
2026-04-27 23:12 1.64080 -77.23057 11398 ft 300 kts 208°
2026-04-27 23:13 1.62250 -77.24043 11131 ft 297 kts 208°
2026-04-27 23:13 1.60427 -77.25021 10845 ft 295 kts 208°
2026-04-27 23:13 1.58629 -77.25985 10663 ft 289 kts 208°
2026-04-27 23:13 1.56892 -77.26915 10528 ft 282 kts 208°
2026-04-27 23:14 1.55180 -77.27831 10408 ft 275 kts 208°
2026-04-27 23:14 1.53514 -77.28722 10286 ft 268 kts 208°
2026-04-27 23:14 1.51877 -77.29577 10116 ft 263 kts 206°
2026-04-27 23:14 1.50236 -77.30396 9826 ft 263 kts 206°
2026-04-27 23:15 1.48618 -77.31201 9565 ft 262 kts 206°
2026-04-27 23:15 1.46996 -77.32011 9302 ft 260 kts 206°
2026-04-27 23:15 1.45387 -77.32816 9033 ft 254 kts 207°
2026-04-27 23:15 1.43829 -77.33595 8828 ft 244 kts 207°
2026-04-27 23:16 1.42359 -77.34331 8794 ft 227 kts 207°
2026-04-27 23:16 1.41020 -77.35002 8778 ft 209 kts 207°
2026-04-27 23:16 1.39766 -77.35630 8778 ft 193 kts 207°
2026-04-27 23:16 1.38618 -77.36202 8780 ft 178 kts 205°
2026-04-27 23:17 1.37459 -77.36572 8498 ft 170 kts 186°
2026-04-27 23:17 1.36315 -77.36457 8328 ft 170 kts 164°
2026-04-27 23:17 1.35259 -77.35943 8066 ft 166 kts 145°
2026-04-27 23:17 1.34453 -77.35133 7819 ft 164 kts 124°
2026-04-27 23:18 1.33959 -77.34102 7600 ft 167 kts 103°
2026-04-27 23:18 1.33852 -77.32954 7245 ft 166 kts 83°
2026-04-27 23:18 1.34099 -77.31864 7106 ft 159 kts 65°
2026-04-27 23:18 1.34697 -77.30949 6937 ft 160 kts 48°
2026-04-27 23:19 1.35422 -77.30100 6724 ft 161 kts 41°
2026-04-27 23:19 1.36431 -77.29683 6447 ft 158 kts
2026-04-27 23:19 1.37546 -77.29673 6270 ft 157 kts 12°
2026-04-27 23:19 1.38590 -77.29380 6024 ft 155 kts 14°
2026-04-27 23:20 1.39562 -77.29123 5910 ft 112 kts 16°
2026-04-27 23:20 1.39979 -77.29012 5885 ft 36 kts 15°
2026-04-27 23:20 1.40211 -77.28949 5870 ft 33 kts 15°
2026-04-27 23:20 1.40344 -77.28911 5862 ft 16 kts 13°
2026-04-27 23:21 1.40453 -77.28884 5861 ft 16 kts 14°
2026-04-27 23:21 1.40556 -77.28860 5860 ft 14 kts 10°
2026-04-27 23:21 1.40600 -77.28861 5851 ft 5 kts 349°
2026-04-27 23:21 1.40616 -77.28853 5850 ft 1 kts 54°
2026-04-27 23:22 1.40611 -77.28845 5851 ft 2 kts 143°
2026-04-27 23:22 1.40599 -77.28845 5851 ft 2 kts 187°
2026-04-27 23:22 1.40589 -77.28848 5852 ft 2 kts 196°
2026-04-27 23:22 1.40577 -77.28852 5852 ft 2 kts 197°
2026-04-27 23:23 1.40546 -77.28860 5862 ft 5 kts 195°
2026-04-27 23:23 1.40506 -77.28871 5870 ft 8 kts 195°
2026-04-27 23:23 1.40437 -77.28888 5863 ft 13 kts 195°
2026-04-27 23:23 1.40333 -77.28917 5863 ft 18 kts 195°
2026-04-27 23:24 1.40204 -77.28951 5874 ft 20 kts 194°
2026-04-27 23:24 1.40113 -77.28975 5879 ft 21 kts 195°
2026-04-27 23:24 1.39913 -77.29028 5890 ft 23 kts 195°
2026-04-27 23:24 1.39757 -77.29067 5898 ft 23 kts 195°
2026-04-27 23:25 1.39674 -77.29058 5904 ft 11 kts 101°
2026-04-27 23:25 1.39653 -77.29021 5907 ft 5 kts 153°
2026-04-27 23:25 1.39622 -77.29017 5906 ft 5 kts 189°
2026-04-27 23:25 1.39592 -77.29026 5907 ft 4 kts 195°
2026-04-27 23:26 1.39562 -77.29031 5907 ft 4 kts 169°
2026-04-27 23:26 1.39547 -77.29006 5907 ft 4 kts 105°
2026-04-27 23:26 1.39543 -77.28995 5907 ft 1 kts 109°
2026-04-27 23:26 1.39543 -77.28993 5907 ft 0 kts 108°